| time (UTC) | temp F | wind direction | speed MPH | gust MPH | rain 1hr in | rain 24hr in | rain mn in | humidity % | barometer mb |
| 20260906011449 | 78 | 3 | 2.0 | 3.0 | 0.00 | 0.00 | 0.00 | 89 | 1031.6 |
| 20260906010944 | 78 | 5 | 2.0 | 3.0 | 0.00 | 0.00 | 0.00 | 89 | 1031.5 |
| 20260906010440 | 78 | 15 | 0.0 | 0.0 | 0.00 | 0.00 | 0.00 | 87 | 1031.4 |
| 20260906005936 | 78 | 15 | 0.0 | 0.0 | 0.00 | 0.00 | 0.00 | 87 | 1031.3 |
| 20260906005436 | 79 | 20 | 0.0 | 2.0 | 0.00 | 0.00 | 0.00 | 86 | 1031.1 |
| 20260906004934 | 79 | 8 | 0.0 | 2.0 | 0.00 | 0.00 | 0.00 | 84 | 1031.3 |
| 20260906004428 | 79 | 157 | 1.0 | 1.0 | 0.00 | 0.00 | 0.00 | 83 | 1031.2 |
| 20260906003925 | 79 | 98 | 1.0 | 4.0 | 0.00 | 0.00 | 0.00 | 83 | 1031.3 |
| 20260906003419 | 79 | 45 | 2.0 | 5.0 | 0.00 | 0.00 | 0.00 | 86 | 1031.3 |
| 20260906002915 | 79 | 26 | 2.0 | 2.0 | 0.00 | 0.00 | 0.00 | 87 | 1031.4 |
| 20260906002414 | 79 | 18 | 2.0 | 4.0 | 0.00 | 0.00 | 0.00 | 87 | 1031.3 |
| 20260906001909 | 79 | 63 | 1.0 | 3.0 | 0.00 | 0.00 | 0.00 | 87 | 1031.2 |
| 20260906001405 | 80 | 39 | 3.0 | 4.0 | 0.00 | 0.00 | 0.00 | 87 | 1031.3 |
| 20260906000905 | 80 | 60 | 1.0 | 3.0 | 0.00 | 0.00 | 0.00 | 87 | 1031.1 |
| 20260906000403 | 80 | 120 | 0.0 | 2.0 | 0.00 | 0.00 | 0.00 | 88 | 1031.2 |
| 20260905235855 | 80 | 114 | 0.0 | 3.0 | 0.00 | 0.00 | 0.00 | 88 | 1031.4 |
| 20260905235349 | 80 | 354 | 0.0 | 2.0 | 0.00 | 0.00 | 0.00 | 88 | 1031.2 |
| 20260905234845 | 80 | 24 | 2.0 | 3.0 | 0.00 | 0.00 | 0.00 | 88 | 1031.1 |
| 20260905234340 | 80 | 19 | 3.0 | 7.0 | 0.00 | 0.00 | 0.00 | 86 | 1031.3 |
| 20260905233835 | 81 | 352 | 2.0 | 8.0 | 0.00 | 0.00 | 0.00 | 86 | 1031.2 |
| 20260905233330 | 82 | 45 | 3.0 | 3.0 | 0.00 | 0.00 | 0.00 | 86 | 1031.2 |
| 20260905232829 | 82 | 21 | 2.0 | 2.0 | 0.00 | 0.00 | 0.00 | 86 | 1031.0 |
| 20260905232325 | 83 | 90 | 0.0 | 0.0 | 0.00 | 0.00 | 0.00 | 85 | 1031.2 |
| 20260905231821 | 84 | 0 | 0.0 | 2.0 | 0.00 | 0.00 | 0.00 | 84 | 1031.1 |
| 20260905231316 | 84 | 162 | 2.0 | 2.0 | 0.00 | 0.00 | 0.00 | 83 | 1030.9 |
| 20260905230812 | 85 | 162 | 2.0 | 2.0 | 0.00 | 0.00 | 0.00 | 82 | 1030.7 |
| 20260905230310 | 86 | 166 | 0.0 | 0.0 | 0.00 | 0.00 | 0.00 | 81 | 1031.0 |
| 20260905225809 | 87 | 114 | 0.0 | 0.0 | 0.00 | 0.00 | 0.00 | 79 | 1031.1 |
| 20260905225306 | 88 | 160 | 4.0 | 4.0 | 0.00 | 0.00 | 0.00 | 77 | 1031.1 |
| 20260905224804 | 88 | 160 | 0.0 | 2.0 | 0.00 | 0.00 | 0.00 | 77 | 1030.9 |
| 20260905224300 | 87 | 22 | 2.0 | 3.0 | 0.00 | 0.00 | 0.00 | 76 | 1031.0 |
| 20260905223755 | 88 | 14 | 2.0 | 3.0 | 0.00 | 0.00 | 0.00 | 75 | 1031.0 |
| 20260905223252 | 88 | 28 | 2.0 | 3.0 | 0.00 | 0.00 | 0.00 | 74 | 1030.5 |
| 20260905222748 | 90 | 352 | 2.0 | 2.0 | 0.00 | 0.00 | 0.00 | 72 | 1030.8 |
| 20260905222246 | 88 | 336 | 0.0 | 5.0 | 0.00 | 0.00 | 0.00 | 73 | 1030.7 |
| 20260905221742 | 90 | 6 | 3.0 | 4.0 | 0.00 | 0.00 | 0.00 | 70 | 1030.5 |
| 20260905221239 | 90 | 14 | 1.0 | 3.0 | 0.00 | 0.00 | 0.00 | 66 | 1030.9 |
| 20260905220735 | 90 | 18 | 3.0 | 5.0 | 0.00 | 0.00 | 0.00 | 67 | 1030.8 |
| 20260905220231 | 90 | 34 | 3.0 | 3.0 | 0.00 | 0.00 | 0.00 | 66 | 1030.9 |
| 20260905215730 | 90 | 354 | 0.0 | 2.0 | 0.00 | 0.00 | 0.00 | 67 | 1031.0 |
| 20260905215226 | 90 | 0 | 1.0 | 2.0 | 0.00 | 0.00 | 0.00 | 68 | 1031.2 |
| 20260905214721 | 90 | 12 | 2.0 | 4.0 | 0.00 | 0.00 | 0.00 | 68 | 1031.0 |
| 20260905214217 | 90 | 350 | 2.0 | 2.0 | 0.00 | 0.00 | 0.00 | 68 | 1031.1 |
| 20260905213712 | 89 | 24 | 2.0 | 4.0 | 0.00 | 0.00 | 0.00 | 70 | 1031.2 |
| 20260905213208 | 89 | 341 | 2.0 | 3.0 | 0.00 | 0.00 | 0.00 | 69 | 1031.2 |
| 20260905212703 | 89 | 352 | 5.0 | 5.0 | 0.00 | 0.00 | 0.00 | 70 | 1031.3 |
| 20260905212202 | 90 | 357 | 3.0 | 4.0 | 0.00 | 0.00 | 0.00 | 69 | 1031.3 |
| 20260905211657 | 90 | 0 | 5.0 | 5.0 | 0.00 | 0.00 | 0.00 | 68 | 1031.0 |
| 20260905211152 | 91 | 338 | 2.0 | 3.0 | 0.00 | 0.00 | 0.00 | 68 | 1031.2 |
| 20260905210649 | 90 | 339 | 2.0 | 4.0 | 0.00 | 0.00 | 0.00 | 67 | 1031.3 |
| 20260905210149 | 91 | 340 | 0.0 | 2.0 | 0.00 | 0.00 | 0.00 | 66 | 1031.5 |
| 20260905205648 | 92 | 339 | 2.0 | 2.0 | 0.00 | 0.00 | 0.00 | 65 | 1031.6 |
| 20260905205147 | 92 | 348 | 2.0 | 4.0 | 0.00 | 0.00 | 0.00 | 64 | 1031.4 |
| 20260905204646 | 93 | 353 | 0.0 | 2.0 | 0.00 | 0.00 | 0.00 | 63 | 1031.7 |
| 20260905204142 | 92 | 194 | 0.0 | 2.0 | 0.00 | 0.00 | 0.00 | 65 | 1031.1 |
| 20260905203637 | 92 | 18 | 2.0 | 3.0 | 0.00 | 0.00 | 0.00 | 64 | 1031.4 |
| 20260905203132 | 95 | 8 | 0.0 | 2.0 | 0.00 | 0.00 | 0.00 | 61 | 1031.6 |
| 20260905202628 | 93 | 355 | 0.0 | 2.0 | 0.00 | 0.00 | 0.00 | 64 | 1031.8 |
| 20260905202123 | 92 | 71 | 2.0 | 2.0 | 0.00 | 0.00 | 0.00 | 63 | 1031.7 |
| 20260905201619 | 91 | 203 | 0.0 | 1.0 | 0.00 | 0.00 | 0.00 | 66 | 1031.7 |
| 20260905201118 | 91 | 354 | 1.0 | 3.0 | 0.00 | 0.00 | 0.00 | 67 | 1031.8 |
| 20260905200614 | 91 | 349 | 2.0 | 2.0 | 0.00 | 0.00 | 0.00 | 67 | 1031.8 |
| 20260905200108 | 89 | 0 | 2.0 | 3.0 | 0.00 | 0.00 | 0.00 | 70 | 1031.9 |
| 20260905195602 | 89 | 319 | 2.0 | 3.0 | 0.00 | 0.00 | 0.00 | 72 | 1031.9 |
| 20260905195057 | 87 | 348 | 1.0 | 3.0 | 0.00 | 0.00 | 0.00 | 74 | 1032.1 |
| 20260905194557 | 87 | 337 | 1.0 | 4.0 | 0.00 | 0.00 | 0.00 | 75 | 1032.1 |
| 20260905194056 | 85 | 17 | 2.0 | 5.0 | 0.00 | 0.00 | 0.00 | 81 | 1032.2 |
| 20260905193551 | 83 | 5 | 2.0 | 4.0 | 0.00 | 0.00 | 0.00 | 85 | 1032.2 |
| 20260905193046 | 83 | 0 | 3.0 | 4.0 | 0.00 | 0.00 | 0.00 | 85 | 1032.2 |
| 20260905192542 | 82 | 19 | 2.0 | 4.0 | 0.00 | 0.00 | 0.00 | 85 | 1032.3 |
| 20260905192038 | 82 | 4 | 2.0 | 4.0 | 0.00 | 0.00 | 0.00 | 84 | 1032.3 |
| 20260905191536 | 83 | 345 | 3.0 | 3.0 | 0.00 | 0.00 | 0.00 | 84 | 1032.9 |
| 20260905191036 | 82 | 98 | 0.0 | 1.0 | 0.00 | 0.00 | 0.00 | 84 | 1032.7 |
| 20260905190533 | 82 | 151 | 0.0 | 0.0 | 0.00 | 0.00 | 0.00 | 85 | 1032.8 |
| 20260905190028 | 82 | 180 | 0.0 | 1.0 | 0.00 | 0.00 | 0.00 | 84 | 1033.0 |
| 20260905185527 | 82 | 114 | 0.0 | 0.0 | 0.00 | 0.00 | 0.00 | 83 | 1033.1 |
| 20260905185026 | 82 | 0 | 0.0 | 2.0 | 0.00 | 0.00 | 0.00 | 84 | 1033.2 |
| 20260905184521 | 82 | 180 | 0.0 | 0.0 | 0.00 | 0.00 | 0.00 | 83 | 1032.8 |
| 20260905184019 | 82 | 180 | 1.0 | 2.0 | 0.00 | 0.00 | 0.00 | 82 | 1032.5 |
| 20260905183514 | 82 | 180 | 0.0 | 2.0 | 0.00 | 0.00 | 0.00 | 82 | 1032.7 |
| 20260905183009 | 83 | 187 | 1.0 | 1.0 | 0.00 | 0.00 | 0.00 | 81 | 1032.6 |
| 20260905182508 | 83 | 172 | 0.0 | 0.0 | 0.00 | 0.00 | 0.00 | 81 | 1032.7 |
| 20260905182004 | 83 | 195 | 0.0 | 2.0 | 0.00 | 0.00 | 0.00 | 81 | 1033.0 |
| 20260905181459 | 83 | 174 | 1.0 | 3.0 | 0.00 | 0.00 | 0.00 | 78 | 1032.8 |
| 20260905180957 | 84 | 180 | 0.0 | 1.0 | 0.00 | 0.00 | 0.00 | 77 | 1032.7 |
| 20260905180452 | 84 | 180 | 1.0 | 3.0 | 0.00 | 0.00 | 0.00 | 76 | 1032.9 |
| 20260905175948 | 85 | 180 | 2.0 | 3.0 | 0.00 | 0.00 | 0.00 | 74 | 1033.2 |
| 20260905175447 | 86 | 188 | 1.0 | 2.0 | 0.00 | 0.00 | 0.00 | 72 | 1033.2 |
| 20260905174943 | 87 | 183 | 3.0 | 3.0 | 0.00 | 0.00 | 0.00 | 70 | 1033.1 |
| 20260905174438 | 87 | 184 | 2.0 | 5.0 | 0.00 | 0.00 | 0.00 | 69 | 1033.1 |
| 20260905173933 | 89 | 182 | 3.0 | 4.0 | 0.00 | 0.00 | 0.00 | 67 | 1033.1 |
| 20260905173430 | 91 | 178 | 3.0 | 4.0 | 0.00 | 0.00 | 0.00 | 65 | 1033.6 |
| 20260905172925 | 90 | 165 | 2.0 | 4.0 | 0.00 | 0.00 | 0.00 | 64 | 1033.5 |
| 20260905172422 | 91 | 190 | 2.0 | 3.0 | 0.00 | 0.00 | 0.00 | 65 | 1033.4 |
| 20260905171919 | 90 | 164 | 2.0 | 3.0 | 0.00 | 0.00 | 0.00 | 66 | 1033.2 |
| 20260905171415 | 89 | 187 | 1.0 | 2.0 | 0.00 | 0.00 | 0.00 | 65 | 1033.0 |
| 20260905170911 | 90 | 177 | 2.0 | 3.0 | 0.00 | 0.00 | 0.00 | 64 | 1033.5 |
| 20260905170407 | 89 | 180 | 1.0 | 2.0 | 0.00 | 0.00 | 0.00 | 65 | 1033.4 |
| 20260905165906 | 89 | 173 | 3.0 | 4.0 | 0.00 | 0.00 | 0.00 | 65 | 1033.4 |
| 20260905165401 | 89 | 175 | 0.0 | 2.0 | 0.00 | 0.00 | 0.00 | 64 | 1033.5 |
| 20260905164856 | 89 | 175 | 0.0 | 3.0 | 0.00 | 0.00 | 0.00 | 67 | 1033.6 |
| 20260905164351 | 89 | 186 | 1.0 | 2.0 | 0.00 | 0.00 | 0.00 | 67 | 1033.9 |
| 20260905163846 | 89 | 195 | 0.0 | 0.0 | 0.00 | 0.00 | 0.00 | 68 | 1033.8 |
| 20260905163343 | 88 | 173 | 0.0 | 0.0 | 0.00 | 0.00 | 0.00 | 69 | 1033.6 |
| 20260905162839 | 88 | 352 | 1.0 | 3.0 | 0.00 | 0.00 | 0.00 | 68 | 1033.7 |
| 20260905162338 | 88 | 353 | 0.0 | 1.0 | 0.00 | 0.00 | 0.00 | 70 | 1033.7 |
| 20260905161833 | 87 | 195 | 0.0 | 1.0 | 0.00 | 0.00 | 0.00 | 73 | 1034.2 |
| 20260905161332 | 87 | 180 | 0.0 | 1.0 | 0.00 | 0.00 | 0.00 | 73 | 1033.9 |
| 20260905160830 | 87 | 103 | 0.0 | 0.0 | 0.00 | 0.00 | 0.00 | 72 | 1034.0 |
| 20260905160325 | 87 | 165 | 0.0 | 0.0 | 0.00 | 0.00 | 0.00 | 72 | 1033.9 |
| 20260905155819 | 87 | 180 | 0.0 | 2.0 | 0.00 | 0.00 | 0.00 | 72 | 1034.0 |
| 20260905155313 | 86 | 120 | 1.0 | 3.0 | 0.00 | 0.00 | 0.00 | 72 | 1033.9 |
| 20260905154807 | 85 | 180 | 0.0 | 1.0 | 0.00 | 0.00 | 0.00 | 74 | 1033.9 |
| 20260905154303 | 86 | 195 | 0.0 | 0.0 | 0.00 | 0.00 | 0.00 | 76 | 1034.0 |
| 20260905153758 | 85 | 195 | 0.0 | 1.0 | 0.00 | 0.00 | 0.00 | 76 | 1033.9 |
| 20260905153254 | 84 | 168 | 0.0 | 1.0 | 0.00 | 0.00 | 0.00 | 77 | 1033.8 |
| 20260905152748 | 84 | 23 | 0.0 | 0.0 | 0.00 | 0.00 | 0.00 | 78 | 1033.8 |
| 20260905152243 | 84 | 180 | 0.0 | 2.0 | 0.00 | 0.00 | 0.00 | 79 | 1033.8 |
| 20260905151742 | 84 | 180 | 0.0 | 0.0 | 0.00 | 0.00 | 0.00 | 79 | 1034.0 |
| 20260905151239 | 85 | 8 | 0.0 | 3.0 | 0.00 | 0.00 | 0.00 | 78 | 1033.9 |
| 20260905150738 | 84 | 0 | 0.0 | 3.0 | 0.00 | 0.00 | 0.00 | 78 | 1034.0 |
| 20260905150238 | 84 | 172 | 0.0 | 0.0 | 0.00 | 0.00 | 0.00 | 79 | 1034.0 |
| 20260905145735 | 83 | 180 | 0.0 | 0.0 | 0.00 | 0.00 | 0.00 | 80 | 1034.2 |
| 20260905145231 | 83 | 180 | 0.0 | 0.0 | 0.00 | 0.00 | 0.00 | 80 | 1034.0 |
| 20260905144729 | 83 | 157 | 0.0 | 1.0 | 0.00 | 0.00 | 0.00 | 80 | 1034.0 |
| 20260905144225 | 82 | 66 | 0.0 | 2.0 | 0.00 | 0.00 | 0.00 | 81 | 1034.5 |
| 20260905143724 | 82 | 353 | 0.0 | 0.0 | 0.00 | 0.00 | 0.00 | 83 | 1033.9 |
| 20260905143223 | 81 | 157 | 0.0 | 1.0 | 0.00 | 0.00 | 0.00 | 84 | 1034.3 |
| 20260905142722 | 81 | 180 | 0.0 | 2.0 | 0.00 | 0.00 | 0.00 | 84 | 1033.9 |
| 20260905142216 | 81 | 180 | 0.0 | 2.0 | 0.00 | 0.00 | 0.00 | 84 | 1034.2 |
| 20260905141712 | 81 | 157 | 1.0 | 1.0 | 0.00 | 0.00 | 0.00 | 84 | 1034.2 |
| 20260905141209 | 81 | 131 | 0.0 | 0.0 | 0.00 | 0.00 | 0.00 | 84 | 1034.2 |
| 20260905140703 | 81 | 131 | 0.0 | 0.0 | 0.00 | 0.00 | 0.00 | 84 | 1034.3 |
| 20260905140157 | 81 | 131 | 0.0 | 0.0 | 0.00 | 0.00 | 0.00 | 84 | 1034.2 |
| 20260905135651 | 80 | 131 | 0.0 | 0.0 | 0.00 | 0.00 | 0.00 | 84 | 1034.2 |
| 20260905135142 | 80 | 52 | 2.0 | 3.0 | 0.00 | 0.00 | 0.00 | 84 | 1034.5 |
| 20260905134641 | 80 | 29 | 3.0 | 5.0 | 0.00 | 0.00 | 0.00 | 84 | 1034.3 |
| 20260905134140 | 80 | 33 | 2.0 | 2.0 | 0.00 | 0.00 | 0.00 | 85 | 1034.3 |
| 20260905133636 | 80 | 0 | 0.0 | 1.0 | 0.00 | 0.00 | 0.00 | 86 | 1034.4 |
| 20260905133136 | 79 | 21 | 2.0 | 2.0 | 0.00 | 0.00 | 0.00 | 86 | 1034.5 |
| 20260905132635 | 78 | 354 | 1.0 | 2.0 | 0.00 | 0.00 | 0.00 | 88 | 1034.4 |
| 20260905132130 | 77 | 57 | 0.0 | 2.0 | 0.00 | 0.00 | 0.00 | 89 | 1034.5 |
| 20260905131626 | 77 | 172 | 0.0 | 1.0 | 0.00 | 0.00 | 0.00 | 89 | 1034.5 |
| 20260905131120 | 76 | 180 | 0.0 | 0.0 | 0.00 | 0.00 | 0.00 | 90 | 1034.7 |
| 20260905130615 | 76 | 180 | 0.0 | 0.0 | 0.00 | 0.00 | 0.00 | 90 | 1034.7 |
| 20260905130115 | 76 | 180 | 0.0 | 0.0 | 0.00 | 0.00 | 0.00 | 90 | 1034.4 |
| 20260905125609 | 76 | 180 | 0.0 | 0.0 | 0.00 | 0.00 | 0.00 | 90 | 1034.8 |
| 20260905125105 | 76 | 15 | 0.0 | 1.0 | 0.00 | 0.00 | 0.00 | 90 | 1034.4 |
| 20260905124601 | 75 | 0 | 0.0 | 1.0 | 0.00 | 0.00 | 0.00 | 91 | 1034.4 |
| 20260905124057 | 75 | 355 | 1.0 | 2.0 | 0.00 | 0.00 | 0.00 | 92 | 1034.5 |
| 20260905123551 | 75 | 0 | 1.0 | 2.0 | 0.00 | 0.00 | 0.00 | 92 | 1034.5 |
| 20260905123048 | 74 | 15 | 0.0 | 1.0 | 0.00 | 0.00 | 0.00 | 93 | 1034.6 |
| 20260905122543 | 74 | 353 | 1.0 | 2.0 | 0.00 | 0.00 | 0.00 | 92 | 1034.4 |
| 20260905122038 | 75 | 0 | 0.0 | 0.0 | 0.00 | 0.00 | 0.00 | 93 | 1034.5 |
| 20260905121538 | 75 | 0 | 0.0 | 1.0 | 0.00 | 0.00 | 0.00 | 93 | 1034.6 |
| 20260905121033 | 74 | 15 | 0.0 | 0.0 | 0.00 | 0.00 | 0.00 | 94 | 1034.5 |
| 20260905120526 | 74 | 0 | 0.0 | 1.0 | 0.00 | 0.00 | 0.00 | 94 | 1034.5 |
| 20260905120022 | 73 | 0 | 1.0 | 2.0 | 0.00 | 0.00 | 0.00 | 94 | 1034.4 |
| 20260905115521 | 73 | 6 | 1.0 | 2.0 | 0.00 | 0.00 | 0.00 | 95 | 1034.2 |
| 20260905115016 | 73 | 7 | 1.0 | 1.0 | 0.00 | 0.00 | 0.00 | 95 | 1033.7 |
| 20260905114515 | 73 | 6 | 1.0 | 2.0 | 0.00 | 0.00 | 0.00 | 94 | 1033.9 |
| 20260905114014 | 73 | 348 | 0.0 | 2.0 | 0.00 | 0.00 | 0.00 | 94 | 1033.8 |
| 20260905113510 | 73 | 8 | 0.0 | 1.0 | 0.00 | 0.00 | 0.00 | 93 | 1033.7 |
| 20260905113005 | 73 | 0 | 0.0 | 0.0 | 0.00 | 0.00 | 0.00 | 94 | 1033.6 |
| 20260905112500 | 73 | 0 | 0.0 | 0.0 | 0.00 | 0.00 | 0.00 | 94 | 1033.7 |
| 20260905111955 | 73 | 0 | 0.0 | 1.0 | 0.00 | 0.00 | 0.00 | 94 | 1033.8 |
| 20260905111449 | 74 | 7 | 1.0 | 2.0 | 0.00 | 0.00 | 0.00 | 93 | 1033.6 |
| 20260905110943 | 74 | 99 | 0.0 | 0.0 | 0.00 | 0.00 | 0.00 | 93 | 1033.5 |
| 20260905110443 | 73 | 0 | 0.0 | 0.0 | 0.00 | 0.00 | 0.00 | 93 | 1033.4 |
| 20260905105937 | 73 | 0 | 1.0 | 2.0 | 0.00 | 0.00 | 0.00 | 93 | 1033.4 |
| 20260905105432 | 73 | 0 | 2.0 | 3.0 | 0.00 | 0.00 | 0.00 | 93 | 1033.4 |
| 20260905104931 | 74 | 0 | 2.0 | 3.0 | 0.00 | 0.00 | 0.00 | 92 | 1033.3 |
| 20260905104427 | 75 | 15 | 2.0 | 3.0 | 0.00 | 0.00 | 0.00 | 90 | 1033.3 |
| 20260905103922 | 75 | 337 | 0.0 | 2.0 | 0.00 | 0.00 | 0.00 | 89 | 1033.1 |
| 20260905103418 | 75 | 172 | 0.0 | 0.0 | 0.00 | 0.00 | 0.00 | 90 | 1033.2 |
| 20260905102913 | 75 | 157 | 0.0 | 0.0 | 0.00 | 0.00 | 0.00 | 89 | 1033.0 |
| 20260905102409 | 76 | 7 | 0.0 | 0.0 | 0.00 | 0.00 | 0.00 | 87 | 1032.9 |
| 20260905101904 | 76 | 7 | 0.0 | 0.0 | 0.00 | 0.00 | 0.00 | 86 | 1033.0 |
| 20260905101402 | 76 | 7 | 0.0 | 0.0 | 0.00 | 0.00 | 0.00 | 87 | 1032.5 |
| 20260905100857 | 76 | 7 | 0.0 | 0.0 | 0.00 | 0.00 | 0.00 | 87 | 1032.8 |
| 20260905100353 | 76 | 0 | 0.0 | 0.0 | 0.00 | 0.00 | 0.00 | 87 | 1032.8 |
| 20260905095852 | 76 | 0 | 0.0 | 0.0 | 0.00 | 0.00 | 0.00 | 87 | 1032.5 |
| 20260905095347 | 76 | 0 | 0.0 | 0.0 | 0.00 | 0.00 | 0.00 | 86 | 1032.6 |
| 20260905094841 | 76 | 0 | 0.0 | 1.0 | 0.00 | 0.00 | 0.00 | 86 | 1032.5 |
| 20260905094337 | 76 | 352 | 0.0 | 2.0 | 0.00 | 0.00 | 0.00 | 86 | 1032.6 |
| 20260905093836 | 76 | 345 | 2.0 | 2.0 | 0.00 | 0.00 | 0.00 | 86 | 1032.5 |
| 20260905093332 | 77 | 0 | 1.0 | 1.0 | 0.00 | 0.00 | 0.00 | 84 | 1032.5 |
| 20260905092828 | 76 | 7 | 0.0 | 1.0 | 0.00 | 0.00 | 0.00 | 85 | 1032.5 |
| 20260905092327 | 77 | 337 | 0.0 | 0.0 | 0.00 | 0.00 | 0.00 | 85 | 1032.6 |
| 20260905091822 | 77 | 337 | 0.0 | 0.0 | 0.00 | 0.00 | 0.00 | 83 | 1032.4 |
| 20260905091322 | 77 | 353 | 0.0 | 2.0 | 0.00 | 0.00 | 0.00 | 83 | 1032.8 |
| 20260905090820 | 77 | 349 | 2.0 | 2.0 | 0.00 | 0.00 | 0.00 | 84 | 1032.7 |
| 20260905090317 | 77 | 346 | 1.0 | 1.0 | 0.00 | 0.00 | 0.00 | 83 | 1032.8 |
| 20260905085810 | 77 | 0 | 0.0 | 0.0 | 0.00 | 0.00 | 0.00 | 82 | 1032.7 |
| 20260905085306 | 78 | 0 | 0.0 | 0.0 | 0.00 | 0.00 | 0.00 | 82 | 1032.7 |
| 20260905084759 | 78 | 337 | 0.0 | 0.0 | 0.00 | 0.00 | 0.00 | 82 | 1032.8 |
| 20260905084254 | 78 | 345 | 1.0 | 1.0 | 0.00 | 0.00 | 0.00 | 82 | 1032.9 |
| 20260905083749 | 78 | 354 | 1.0 | 1.0 | 0.00 | 0.00 | 0.00 | 82 | 1032.6 |
| 20260905083244 | 78 | 0 | 0.0 | 0.0 | 0.00 | 0.00 | 0.00 | 82 | 1032.8 |
| 20260905082739 | 77 | 353 | 0.0 | 2.0 | 0.00 | 0.00 | 0.00 | 84 | 1032.8 |
| 20260905082235 | 77 | 0 | 0.0 | 2.0 | 0.00 | 0.00 | 0.00 | 84 | 1032.9 |
| 20260905081730 | 77 | 342 | 1.0 | 2.0 | 0.00 | 0.00 | 0.00 | 85 | 1032.9 |
| 20260905081225 | 77 | 339 | 2.0 | 2.0 | 0.00 | 0.00 | 0.00 | 86 | 1033.2 |
| 20260905080724 | 77 | 332 | 2.0 | 2.0 | 0.00 | 0.00 | 0.00 | 85 | 1033.2 |
| 20260905080219 | 77 | 342 | 1.0 | 2.0 | 0.00 | 0.00 | 0.00 | 85 | 1033.2 |
| 20260905075718 | 77 | 339 | 2.0 | 2.0 | 0.00 | 0.00 | 0.00 | 85 | 1033.3 |
| 20260905075217 | 77 | 348 | 0.0 | 2.0 | 0.00 | 0.00 | 0.00 | 85 | 1033.3 |
| 20260905074716 | 77 | 340 | 1.0 | 2.0 | 0.00 | 0.00 | 0.00 | 85 | 1033.2 |
| 20260905074213 | 78 | 0 | 1.0 | 2.0 | 0.00 | 0.00 | 0.00 | 84 | 1033.4 |
| 20260905073708 | 78 | 0 | 0.0 | 0.0 | 0.00 | 0.00 | 0.00 | 82 | 1033.4 |
| 20260905073203 | 78 | 0 | 0.0 | 1.0 | 0.00 | 0.00 | 0.00 | 83 | 1033.5 |
| 20260905072703 | 77 | 353 | 0.0 | 2.0 | 0.00 | 0.00 | 0.00 | 86 | 1033.7 |
| 20260905072158 | 77 | 339 | 2.0 | 2.0 | 0.00 | 0.00 | 0.00 | 89 | 1033.4 |
| 20260905071654 | 76 | 331 | 0.0 | 2.0 | 0.00 | 0.00 | 0.00 | 90 | 1033.3 |
| 20260905071150 | 77 | 346 | 1.0 | 2.0 | 0.00 | 0.00 | 0.00 | 89 | 1033.4 |
| 20260905070645 | 77 | 342 | 1.0 | 2.0 | 0.00 | 0.00 | 0.00 | 89 | 1033.6 |
| 20260905070141 | 77 | 353 | 1.0 | 2.0 | 0.00 | 0.00 | 0.00 | 89 | 1033.5 |
| 20260905065639 | 77 | 180 | 0.0 | 0.0 | 0.00 | 0.00 | 0.00 | 89 | 1033.4 |
| 20260905065134 | 77 | 352 | 0.0 | 0.0 | 0.00 | 0.00 | 0.00 | 87 | 1033.6 |
| 20260905064629 | 77 | 352 | 0.0 | 1.0 | 0.00 | 0.00 | 0.00 | 89 | 1033.5 |
| 20260905064125 | 77 | 352 | 0.0 | 2.0 | 0.00 | 0.00 | 0.00 | 88 | 1033.6 |
| 20260905063623 | 78 | 0 | 0.0 | 0.0 | 0.00 | 0.00 | 0.00 | 87 | 1033.8 |
| 20260905063119 | 78 | 0 | 0.0 | 0.0 | 0.00 | 0.00 | 0.00 | 85 | 1033.8 |
| 20260905062615 | 78 | 337 | 0.0 | 0.0 | 0.00 | 0.00 | 0.00 | 85 | 1033.7 |
| 20260905062114 | 78 | 337 | 0.0 | 1.0 | 0.00 | 0.00 | 0.00 | 86 | 1033.8 |
| 20260905061608 | 78 | 345 | 0.0 | 0.0 | 0.00 | 0.00 | 0.00 | 86 | 1033.6 |
| 20260905061103 | 78 | 0 | 0.0 | 1.0 | 0.00 | 0.00 | 0.00 | 86 | 1033.7 |
| 20260905060559 | 78 | 354 | 0.0 | 1.0 | 0.00 | 0.00 | 0.00 | 86 | 1033.9 |
| 20260905060055 | 79 | 349 | 0.0 | 2.0 | 0.00 | 0.00 | 0.00 | 86 | 1033.9 |
| 20260905055553 | 79 | 0 | 0.0 | 1.0 | 0.00 | 0.00 | 0.00 | 84 | 1033.7 |
| 20260905055049 | 78 | 0 | 0.0 | 0.0 | 0.00 | 0.00 | 0.00 | 86 | 1033.8 |
| 20260905054544 | 78 | 0 | 0.0 | 1.0 | 0.00 | 0.00 | 0.00 | 87 | 1033.8 |
| 20260905054039 | 78 | 0 | 0.0 | 2.0 | 0.00 | 0.00 | 0.00 | 88 | 1033.7 |
| 20260905053539 | 78 | 0 | 0.0 | 2.0 | 0.00 | 0.00 | 0.00 | 88 | 1033.7 |
| 20260905053034 | 78 | 353 | 1.0 | 3.0 | 0.00 | 0.00 | 0.00 | 88 | 1033.8 |
| 20260905052533 | 78 | 0 | 0.0 | 3.0 | 0.00 | 0.00 | 0.00 | 87 | 1033.9 |
| 20260905052028 | 79 | 352 | 2.0 | 3.0 | 0.00 | 0.00 | 0.00 | 86 | 1033.9 |
| 20260905051524 | 79 | 353 | 1.0 | 2.0 | 0.00 | 0.00 | 0.00 | 85 | 1033.6 |
| 20260905051021 | 79 | 0 | 0.0 | 1.0 | 0.00 | 0.00 | 0.00 | 84 | 1033.6 |
| 20260905050516 | 80 | 14 | 0.0 | 0.0 | 0.00 | 0.00 | 0.00 | 83 | 1033.7 |
| 20260905050013 | 80 | 14 | 0.0 | 1.0 | 0.00 | 0.00 | 0.00 | 82 | 1033.9 |
| 20260905045507 | 80 | 23 | 1.0 | 1.0 | 0.00 | 0.00 | 0.00 | 82 | 1033.8 |
| 20260905044956 | 80 | 345 | 1.0 | 2.0 | 0.00 | 0.00 | 0.00 | 81 | 1033.8 |
| 20260905044451 | 80 | 0 | 0.0 | 0.0 | 0.00 | 0.00 | 0.00 | 81 | 1033.6 |
| 20260905043945 | 80 | 340 | 0.0 | 2.0 | 0.00 | 0.00 | 0.00 | 81 | 1033.8 |
| 20260905043444 | 81 | 346 | 0.0 | 1.0 | 0.00 | 0.00 | 0.00 | 80 | 1033.9 |
| 20260905042939 | 80 | 352 | 0.0 | 0.0 | 0.00 | 0.00 | 0.00 | 80 | 1033.6 |
| 20260905042433 | 80 | 352 | 0.0 | 0.0 | 0.00 | 0.00 | 0.00 | 82 | 1033.7 |
| 20260905041928 | 80 | 0 | 0.0 | 2.0 | 0.00 | 0.00 | 0.00 | 82 | 1033.5 |
| 20260905041419 | 81 | 331 | 2.0 | 2.0 | 0.00 | 0.00 | 0.00 | 78 | 1033.6 |
| 20260905040918 | 82 | 15 | 0.0 | 0.0 | 0.00 | 0.00 | 0.00 | 75 | 1033.6 |
| 20260905040413 | 82 | 15 | 0.0 | 0.0 | 0.00 | 0.00 | 0.00 | 75 | 1033.7 |
| 20260905035912 | 83 | 15 | 0.0 | 0.0 | 0.00 | 0.00 | 0.00 | 73 | 1033.6 |
| 20260905035407 | 83 | 23 | 0.0 | 2.0 | 0.00 | 0.00 | 0.00 | 73 | 1033.5 |
| 20260905034904 | 83 | 15 | 0.0 | 2.0 | 0.00 | 0.00 | 0.00 | 74 | 1033.6 |
| 20260905034359 | 82 | 0 | 0.0 | 2.0 | 0.00 | 0.00 | 0.00 | 76 | 1033.5 |
| 20260905033858 | 81 | 337 | 2.0 | 2.0 | 0.00 | 0.00 | 0.00 | 79 | 1033.6 |
| 20260905033353 | 81 | 345 | 1.0 | 1.0 | 0.00 | 0.00 | 0.00 | 79 | 1033.7 |
| 20260905032852 | 81 | 172 | 0.0 | 0.0 | 0.00 | 0.00 | 0.00 | 79 | 1033.8 |
| 20260905032348 | 82 | 157 | 2.0 | 2.0 | 0.00 | 0.00 | 0.00 | 79 | 1033.7 |
| 20260905031843 | 83 | 0 | 0.0 | 2.0 | 0.00 | 0.00 | 0.00 | 73 | 1033.6 |
| 20260905031339 | 82 | 4 | 2.0 | 2.0 | 0.00 | 0.00 | 0.00 | 75 | 1033.8 |
| 20260905030834 | 81 | 337 | 2.0 | 2.0 | 0.00 | 0.00 | 0.00 | 80 | 1033.8 |
| 20260905030330 | 81 | 345 | 2.0 | 3.0 | 0.00 | 0.00 | 0.00 | 81 | 1033.6 |
| 20260905025829 | 82 | 349 | 2.0 | 2.0 | 0.00 | 0.00 | 0.00 | 78 | 1033.8 |
| 20260905025324 | 83 | 345 | 0.0 | 2.0 | 0.00 | 0.00 | 0.00 | 76 | 1034.0 |
| 20260905024821 | 83 | 105 | 0.0 | 0.0 | 0.00 | 0.00 | 0.00 | 75 | 1034.0 |
| 20260905024316 | 83 | 0 | 0.0 | 0.0 | 0.00 | 0.00 | 0.00 | 75 | 1034.0 |
| 20260905023811 | 83 | 0 | 0.0 | 0.0 | 0.00 | 0.00 | 0.00 | 75 | 1034.0 |
| 20260905023306 | 83 | 0 | 0.0 | 0.0 | 0.00 | 0.00 | 0.00 | 75 | 1034.0 |
| 20260905022805 | 83 | 355 | 2.0 | 3.0 | 0.00 | 0.00 | 0.00 | 75 | 1033.9 |
| 20260905022301 | 84 | 172 | 0.0 | 0.0 | 0.00 | 0.00 | 0.00 | 72 | 1034.0 |
| 20260905021801 | 84 | 172 | 0.0 | 0.0 | 0.00 | 0.00 | 0.00 | 71 | 1034.0 |
| 20260905021256 | 85 | 172 | 0.0 | 0.0 | 0.00 | 0.00 | 0.00 | 71 | 1034.2 |
| 20260905020750 | 84 | 172 | 0.0 | 0.0 | 0.00 | 0.00 | 0.00 | 71 | 1034.2 |
| 20260905020245 | 84 | 172 | 0.0 | 0.0 | 0.00 | 0.00 | 0.00 | 71 | 1034.3 |
| 20260905015744 | 84 | 172 | 0.0 | 0.0 | 0.00 | 0.00 | 0.00 | 72 | 1034.2 |
| 20260905015238 | 83 | 172 | 0.0 | 0.0 | 0.00 | 0.00 | 0.00 | 74 | 1033.9 |
| 20260905014737 | 82 | 172 | 0.0 | 0.0 | 0.00 | 0.00 | 0.00 | 76 | 1034.2 |
| 20260905014233 | 82 | 172 | 0.0 | 0.0 | 0.00 | 0.00 | 0.00 | 80 | 1034.0 |
| 20260905013728 | 83 | 172 | 0.0 | 0.0 | 0.00 | 0.00 | 0.00 | 79 | 1034.2 |
| 20260905013225 | 83 | 172 | 0.0 | 1.0 | 0.00 | 0.00 | 0.00 | 78 | 1034.0 |
| 20260905012720 | 83 | 173 | 0.0 | 0.0 | 0.00 | 0.00 | 0.00 | 75 | 1034.3 |
| 20260905012215 | 84 | 180 | 1.0 | 2.0 | 0.00 | 0.00 | 0.00 | 73 | 1034.3 |
| 20260905011712 | 86 | 0 | 0.0 | 1.0 | 0.00 | 0.00 | 0.00 | 70 | 1034.0 |